Location: Aalen
(48.8330°N, 10.1000°E)
Time: 20:32:37
(UTC+02:00)

S-56A Canister/Altair - Pass Details

Date: 01 August 2021
Orbit: 632 x 2500 km, 38.9° (Epoch: 19 September)

Event Time Altitude Azimuth Distance (km) Brightness Sun altitude
Rises 19:10:03 0° 265° (W) 5,960 13.6 15.9°
Reaches altitude 10° 19:13:54 10° 261° (W) 5,066 13.4 15.3°
Maximum altitude 19:28:17 55° 190° (S) 2,819 10.6 12.9°
Drops below altitude 10° 19:41:17 10° 118° (ESE) 4,615 10.9 10.9°
Sets 19:44:37 0° 114° (ESE) 5,415 11.2 10.3°
